Location: Marcé
(47.5801°N, 0.3280°W)
Time: 07:15:40
(UTC+01:00)

Altair - Pass Details

Date: 12 December 2021
Orbit: 1501 x 1683 km, 47.2° (Epoch: 21 January)

Event Time Altitude Azimuth Distance (km) Brightness Sun altitude
Rises 21:13:28 0° 290° (WNW) 4,695 10.9 -39.9°
Reaches altitude 10° 21:17:00 10° 281° (W) 3,689 10.2 -40.5°
Maximum altitude 21:24:32 29° 225° (SW) 2,469 8.7 -41.8°
Enters shadow 21:26:20 27° 207° (SSW) 2,549 8.6 -42.1°
Drops below altitude 10° 21:32:00 10° 170° (S) 3,643 - -43.0°
Sets 21:35:30 0° 160° (SSE) 4,626 - -43.6°
